Lexington Weather

Lexington, Massachusetts, USA

34°F
4/16/2021 11:12am 
  • Lexington Conditions: Light snow, Mist, Overcast
  • Temperature: 34.0°F / 1.1°C 
  • Dew Point: 32.7°F 
  • Relative Humidity: 95
  • Wind: Wind from WNW WNW 1 mph, 10-min avg: 1 mph, gust: 4 mph
  • Barometer: 29.46 inFalling 0.03  inHg/hr Falling Slowly
  • Visibility: 1 mile
  • Snow Today: 1.7 in
  •   

Regional Weather Roundup
for Boston / Norton, MA

        
000
ASUS41 KBOX 131704
RWRBOX

REGIONAL WEATHER ROUNDUP
NATIONAL WEATHER SERVICE BOSTON/NORTON MA
100 PM EDT TUE APR 13 2021

NOTE:  "FAIR" INDICATES FEW OR NO CLOUDS BELOW 12,000 FEET WITH NO 
SIGNIFICANT WEATHER AND/OR OBSTRUCTIONS TO VISIBILITY.

MAZALL-131800-
EASTERN MASSACHUSETTS
  
CITY           SKY/WX    TMP DP  RH WIND       PRES   REMARKS
BOSTON         PTSUNNY   57  39  51 NE16      30.04S                  
BEVERLY        NOT AVBL                                               
LAWRENCE       CLOUDY    60  40  47 VRB5      30.04S                  
BEDFORD        PTSUNNY   57  40  52 VRB5      30.02F                  
BLUE HILL        N/A     52  38  58 NE13G24   30.02R                  
NORWOOD        CLOUDY    58  39  49 NE12G18   30.03F                  
MARSHFIELD     CLOUDY    52  41  66 N10G20    30.04R                  
PLYMOUTH       CLOUDY    52  38  58 NE17G32   30.02S                  
TAUNTON        CLOUDY    53  38  56 NE10G17   30.02S                  
NEW BEDFORD    CLOUDY    52  38  58 N15G21    30.01S                  
$$

MAZALL-131800-
CAPE COD AND THE ISLANDS
  
CITY           SKY/WX    TMP DP  RH WIND       PRES   REMARKS
FALMOUTH       NOT AVBL                                               
HYANNIS        CLOUDY    51  41  68 N18G28    29.98R                  
CHATHAM        CLOUDY    48  39  71 NE16G24   30.00R                  
PROVINCETOWN   CLOUDY    50  43  77 NE13      30.03                   
NANTUCKET      CLOUDY    49  41  74 NE28G36   29.98R                  
MARTHAS VNYRD  CLOUDY    51  39  63 N20G29    29.99R                  
$$
 
MAZALL-131800-
CENTRAL AND WESTERN MASSACHUSETTS
  
CITY           SKY/WX    TMP DP  RH WIND       PRES   REMARKS
WORCESTER      PTSUNNY   55  38  52 NE12G18   30.02S                  
FITCHBURG      PTSUNNY   60  40  47 NE8G17    30.03S                  
ORANGE         PTSUNNY   61  39  44 CALM      30.01F                  
SPRINGFIELD    PTSUNNY   61  39  45 N6        30.00F                  
WESTFIELD      PTSUNNY   62  41  46 NE12G18   30.01F                  
NORTH ADAMS    CLOUDY    61  41  47 VRB7      30.01F                  
PITTSFIELD     CLOUDY    58  40  51 NW5       30.00F                  
$$
 
RIZALL-131800-
RHODE ISLAND
  
CITY           SKY/WX    TMP DP  RH WIND       PRES   REMARKS
PROVIDENCE     CLOUDY    56  39  53 NE16      30.02F                  
NEWPORT        CLOUDY    52  39  61 NE15      30.01S                  
BLOCK ISLAND   CLOUDY    51  40  65 NE15G21   30.02S                  
SMITHFIELD     CLOUDY    53  40  61 NE12G18   30.02F                  
WESTERLY       CLOUDY    55  38  52 N9        30.01S                  
$$
 
CTZALL-131800-
CONNECTICUT
  
CITY           SKY/WX    TMP DP  RH WIND       PRES   REMARKS
BRADLEY INTL   PTSUNNY   63  39  41 N9G18     30.02S                  
HARTFORD       CLOUDY    60  39  45 N12G22    30.01F                  
BRIDGEPORT     CLOUDY    60  40  47 VRB3      30.02F                  
DANBURY        CLOUDY    57  40  52 NW8       30.05S                  
GROTON         PTSUNNY   59  40  49 N12G18    30.00S                  
NEW HAVEN      PTSUNNY   62  41  46 N12       30.01F                  
CHESTER        PTSUNNY   61  37  41 NE6G16    30.00F                  
MERIDEN        PTSUNNY   61  38  42 NE13      30.01F                  
WILLIMANTIC    CLOUDY    60  39  45 N7        30.02S                  
OXFORD         CLOUDY    57  40  52 VRB3      30.02F                  
$$

MEZ002-015-021-024-NHZ003-005-008-011-012-014-VTZ005-008-131800-
NORTHERN NEW ENGLAND
  
CITY           SKY/WX    TMP DP  RH WIND       PRES   REMARKS
PORTLAND ME    PTSUNNY   57  40  52 N12       30.03F                  
BANGOR ME      MOSUNNY   58  38  47 N21       30.04F                  
CONCORD NH     CLOUDY    61  39  44 VRB5      30.03S                  
MANCHESTER NH  PTSUNNY   61  38  42 NE6       30.01F                  
NASHUA NH      CLOUDY    59  40  49 N9        30.03F                  
PORTSMOUTH NH  PTSUNNY   59  36  42 N5        30.03F                  
JAFFREY NH     CLOUDY    58  39  49 VRB7G17   30.03S                  
KEENE NH       CLOUDY    60  40  47 N9        30.02S                  
BURLINGTON VT  MOSUNNY   62  39  42 N12       30.05F                  
MT. WASHINGTON FOG       34  34 100 NE14        N/A  VSB 1/16WCI  24  
$$

NYZ052-076-131800-
EASTERN NEW YORK
  
CITY           SKY/WX    TMP DP  RH WIND       PRES   REMARKS
ALBANY         MOSUNNY   58  41  53 CALM      30.04F                  
NEW YORK CITY  MOSUNNY   58  36  43 NW8       30.05F                  
$$
 
ANZALL-131800-
MARINE OBSERVATIONS
  
STATION/POSITION TIME  TEMP    WIND        PRES    VSBY  WAVE
                       AIR SEA DIR/SP/G                  HT/PER
                 (UTC) (F)     (DEG/KT/KT) (MB)    (MI)  (FT/S)
BOSTON BUOY      1640   46 44   10/ 12/ 14 1017.5R
BUZZARDS BAY     1600           30/ 17/ 19 1016.7R
NANTUCKET SOUND  1640      47                N/A
MASS BAY-STELLWA 1604   47     360/ 12/ 14 1015.9S  1 7/8  4/ 6
ISLE OF SHOALS   1600   47      30/ 12/ 14 1016.6S
S OF BLOCK IS    1626      44                N/A           5/ 5
$$

......................KEY.........................
  SKY/WX - SKY CONDITION/PRESENT WEATHER
  TMP    - TEMPERATURE IN FAHRENHEIT
  DWPT   - DEWPOINT IN FAHRENHEIT
  RH     - RELATIVE HUMIDITY IN PERCENT
  WIND   - DIRECTION AND SPEED IN MPH
  PRES   - MEAN SEA LEVEL PRESSURE IN INCHES OF HG
  WCI    - WIND CHILL INDEX
  VSB    - VISIBILITY IN MILES
  HX     - HEAT INDEX
  TC     - TEMPERATURE IN CELSIUS
  VRB    - VARIABLE WIND DIRECTION
  N/A    - NOT AVAILABLE
  
      

Other recent Regional Weather Roundups

Fri Apr 16, 10:05am

Fri Apr 16, 9:04am

Fri Apr 16, 8:04am

Fri Apr 16, 7:04am

Fri Apr 16, 6:04am

Fri Apr 16, 5:04am

Fri Apr 16, 4:04am

Fri Apr 16, 3:04am

Fri Apr 16, 2:04am

Fri Apr 16, 1:04am

Fri Apr 16, 12:04am

Thu Apr 15, 11:05pm

Thu Apr 15, 10:04pm

Thu Apr 15, 9:04pm

Thu Apr 15, 8:04pm

Thu Apr 15, 7:05pm

Thu Apr 15, 6:04pm

Thu Apr 15, 5:05pm

Thu Apr 15, 4:04pm

Thu Apr 15, 3:05pm

Thu Apr 15, 2:04pm

Thu Apr 15, 1:05pm

Thu Apr 15, 12:04pm

Thu Apr 15, 11:04am

Thu Apr 15, 10:05am

Thu Apr 15, 9:04am

Thu Apr 15, 8:04am

Thu Apr 15, 7:04am

Thu Apr 15, 6:04am

Thu Apr 15, 5:04am

Thu Apr 15, 4:04am

Thu Apr 15, 3:04am

Thu Apr 15, 2:04am

Thu Apr 15, 1:04am

Thu Apr 15, 12:04am

Wed Apr 14, 11:04pm

Wed Apr 14, 10:04pm

Wed Apr 14, 9:04pm

Wed Apr 14, 8:04pm

Wed Apr 14, 7:04pm

Wed Apr 14, 6:04pm

Wed Apr 14, 5:05pm

Wed Apr 14, 4:04pm

Wed Apr 14, 3:05pm

Wed Apr 14, 2:04pm

Wed Apr 14, 1:05pm

Wed Apr 14, 12:04pm

Wed Apr 14, 11:04am

Wed Apr 14, 10:04am

Wed Apr 14, 9:04am

Wed Apr 14, 8:04am

Wed Apr 14, 7:04am

Wed Apr 14, 6:04am

Wed Apr 14, 5:04am

Wed Apr 14, 4:04am

Wed Apr 14, 3:04am

Wed Apr 14, 2:04am

Wed Apr 14, 1:04am

Wed Apr 14, 12:04am

Tue Apr 13, 11:04pm

Tue Apr 13, 10:05pm

Tue Apr 13, 9:05pm

Tue Apr 13, 8:05pm

Tue Apr 13, 7:04pm

Tue Apr 13, 6:04pm

Tue Apr 13, 5:05pm

Tue Apr 13, 4:04pm

Tue Apr 13, 3:04pm

Tue Apr 13, 2:05pm

Tue Apr 13, 12:05pm

Tue Apr 13, 11:05am

Tue Apr 13, 10:04am

Tue Apr 13, 9:04am

Tue Apr 13, 8:04am

Tue Apr 13, 7:04am

Tue Apr 13, 6:04am

Tue Apr 13, 5:04am

Tue Apr 13, 4:04am

Tue Apr 13, 3:04am

Tue Apr 13, 2:04am

Tue Apr 13, 1:04am

Tue Apr 13, 12:05am

Mon Apr 12, 11:04pm

Mon Apr 12, 10:04pm

Mon Apr 12, 9:04pm

Mon Apr 12, 8:04pm

Mon Apr 12, 7:05pm

Mon Apr 12, 6:04pm

Mon Apr 12, 5:04pm

Mon Apr 12, 4:04pm

Mon Apr 12, 3:05pm

Mon Apr 12, 2:04pm

Mon Apr 12, 1:05pm

Mon Apr 12, 12:04pm

Mon Apr 12, 11:04am

Mon Apr 12, 10:04am

Mon Apr 12, 9:04am

Mon Apr 12, 8:04am

Mon Apr 12, 7:04am

Mon Apr 12, 6:04am

Mon Apr 12, 5:04am

Mon Apr 12, 4:04am

Mon Apr 12, 3:04am

Mon Apr 12, 2:04am

Mon Apr 12, 1:05am

Mon Apr 12, 12:04am

Sun Apr 11, 11:04pm

Sun Apr 11, 10:04pm

Sun Apr 11, 9:04pm

Sun Apr 11, 8:04pm

Sun Apr 11, 7:04pm

Sun Apr 11, 6:05pm

Sun Apr 11, 5:05pm

Sun Apr 11, 4:04pm

Sun Apr 11, 3:05pm

Sun Apr 11, 2:05pm

Sun Apr 11, 1:05pm

Sun Apr 11, 12:04pm

Sun Apr 11, 11:05am

Sun Apr 11, 10:05am

Sun Apr 11, 9:04am

Sun Apr 11, 8:04am

Sun Apr 11, 7:04am

Sun Apr 11, 6:04am

Sun Apr 11, 5:04am

Sun Apr 11, 4:04am

Sun Apr 11, 3:04am

Sun Apr 11, 2:04am

Sun Apr 11, 1:05am

Sun Apr 11, 12:04am

Sat Apr 10, 11:05pm

Sat Apr 10, 10:04pm

Sat Apr 10, 9:04pm

Sat Apr 10, 8:04pm

Sat Apr 10, 7:05pm

Sat Apr 10, 6:04pm

Sat Apr 10, 5:04pm

Sat Apr 10, 4:04pm

Sat Apr 10, 3:04pm

Sat Apr 10, 2:05pm

Sat Apr 10, 1:04pm

Sat Apr 10, 12:04pm

Sat Apr 10, 11:04am

Sat Apr 10, 10:04am

Sat Apr 10, 9:04am

Sat Apr 10, 8:04am

Sat Apr 10, 7:04am

Sat Apr 10, 6:04am

Sat Apr 10, 5:04am

Sat Apr 10, 4:04am

Sat Apr 10, 3:04am

Sat Apr 10, 2:04am

Sat Apr 10, 1:05am

Sat Apr 10, 12:04am

Fri Apr 9, 11:04pm

Fri Apr 9, 10:05pm

Fri Apr 9, 9:04pm

Fri Apr 9, 8:05pm

Fri Apr 9, 7:05pm

Fri Apr 9, 6:04pm

Fri Apr 9, 5:04pm

Fri Apr 9, 4:05pm

Fri Apr 9, 3:05pm

Fri Apr 9, 2:04pm

Fri Apr 9, 1:04pm

Fri Apr 9, 12:04pm

Fri Apr 9, 11:05am

Meta data:

ID: 0131e880-951b-4f95-9272-c504c062cf0c
Link: https://api.weather.gov/products/0131e880-951b-4f95-9272-c504c062cf0c